Flag for U.S.A. Weather past 2 weeks in Grand Rapids, Michigan, U.S.A.

Now
71 °F

Scattered clouds.


Feels Like: 75 °F
Forecast: 39 / 71 °F
Wind: 9 mph from Southwest

Location: Kent County International Airport


UV Index: 0 (Low)

Visibility: 10 mi


Pressure: 30.18 "Hg

Humidity: 25%

Dew point: 33 °F

Location of Grand RapidsLocation

Historic Weather in Grand Rapids

°F

Grand Rapids temperature yesterday

Maximum temperature yesterday: 62 °F (at 4:53 PM)
Minimum temperature yesterday: 33 °F (at 6:53 AM)
Average temperature yesterday: 47 °F

Past Weeks' High & Low Weather Summary

 TemperatureHumidityPressure
High69 °F (Apr 12, 11:53 AM)90% (Apr 13, 7:53 PM)30.47 "Hg (Apr 13, 7:53 PM)
Low22 °F (Apr 16, 5:53 AM)20% (Apr 11, 3:53 PM)29.33 "Hg (Apr 14, 5:53 AM)
Average47 °F54%30.01 "Hg
* Reported Apr 5 1:53 PM — Apr 20 1:53 PM, Grand Rapids, Weather by CustomWeather, © 2014

Note: Actual official high and low records may vary slightly from our data, if they occured in-between our weather recording intervals... More about our weather records

Advertising

Historic Weather Conditions — Data for Previous 24 hours

 ConditionsComfort  
Time TempWeatherWind HumidityBarometerVisibility
1:53 PM
Apr 20
68 °FPartly sunny.7 mph26%30.20 "Hg10 mi
12:53 PM65 °FPartly sunny.9 mph28%30.22 "Hg10 mi
11:53 AM62 °FPartly sunny.7 mph29%30.24 "Hg10 mi
10:53 AM57 °FPartly sunny.10 mph34%30.26 "Hg10 mi
9:53 AM53 °FPartly sunny.7 mph39%30.27 "Hg10 mi
8:53 AM48 °FPartly sunny.6 mph48%30.27 "Hg10 mi
7:53 AM44 °FPartly sunny.12 mph55%30.26 "Hg10 mi
6:53 AM41 °FPartly cloudy.6 mph60%30.26 "Hg10 mi
5:53 AM42 °FPassing clouds.9 mph60%30.27 "Hg10 mi
4:53 AM43 °FClear.8 mph58%30.29 "Hg10 mi
3:53 AM44 °FClear.6 mph53%30.30 "Hg10 mi
2:53 AM44 °FClear.8 mph53%30.30 "Hg10 mi
1:53 AM46 °FClear.7 mph48%30.31 "Hg10 mi
12:53 AM48 °FClear.10 mph44%30.32 "Hg10 mi
11:53 PM
Apr 19
50 °FPassing clouds.12 mph44%30.33 "Hg10 mi
10:53 PM51 °FPassing clouds.7 mph46%30.33 "Hg10 mi
9:53 PM54 °FPassing clouds.10 mph37%30.31 "Hg10 mi
8:53 PM53 °FPartly sunny.8 mph41%30.29 "Hg10 mi
7:53 PM58 °FPartly sunny.10 mph33%30.29 "Hg10 mi
6:53 PM61 °FPartly sunny.10 mph27%30.30 "Hg10 mi
5:53 PM62 °FPartly sunny.10 mph27%30.31 "Hg10 mi
4:53 PM62 °FPartly sunny.17 mph27%30.32 "Hg10 mi
3:53 PM61 °FPartly sunny.13 mph30%30.35 "Hg10 mi
Weather by CustomWeather, © 2014

See weather overview